Location: Chuathbaluk
(61.5726°N, 159.2454°W)
Time: 14:44:21
(UTC+00:00)

Altair - Pass Details

Date: 03 December 2020
Orbit: 1501 x 1682 km, 47.2° (Epoch: 17 January)

Event Time Altitude Azimuth Distance (km) Brightness Sun altitude
Rises 04:49:52 0° 184° (S) 4,733 10.2 -22.1°
Reaches altitude 10° 04:55:01 10° 161° (SSE) 3,717 9.4 -22.7°
Enters shadow 04:58:34 14° 138° (SE) 3,412 9.0 -23.1°
